TimeEDT,TemperatureF,Dew PointF,Humidity,Sea Level PressureIn,VisibilityMPH,Wind Direction,Wind SpeedMPH,Gust SpeedMPH,PrecipitationIn,Events,Conditions,WindDirDegrees,DateUTC
12:54 AM,64.9,64.0,97,29.79,-9999.0,SSE,12.7,20.7,0.01,,Unknown,150,2012-10-20 04:54:00
1:54 AM,64.0,63.0,96,29.75,-9999.0,SSE,11.5,20.7,0.06,,Unknown,160,2012-10-20 05:54:00
2:54 AM,64.0,63.0,96,29.73,-9999.0,SSE,12.7,-,N/A,,Unknown,150,2012-10-20 06:54:00
3:54 AM,64.9,63.0,93,29.76,-9999.0,South,10.4,-,0.03,,Unknown,180,2012-10-20 07:54:00
4:54 AM,64.9,63.0,93,29.75,-9999.0,SSE,4.6,-,0.04,,Unknown,160,2012-10-20 08:54:00
5:54 AM,64.0,63.0,96,29.72,-9999.0,SSE,6.9,-,N/A,,Unknown,150,2012-10-20 09:54:00
6:54 AM,64.0,63.0,96,29.71,-9999.0,SSE,8.1,-,N/A,,Unknown,160,2012-10-20 10:54:00
7:54 AM,64.0,63.0,96,29.71,-9999.0,SSE,8.1,-,N/A,,Unknown,160,2012-10-20 11:54:00
8:54 AM,64.0,63.0,96,29.71,-9999.0,South,9.2,-,N/A,,Unknown,170,2012-10-20 12:54:00
9:54 AM,66.0,64.0,93,29.70,-9999.0,SSE,9.2,-,N/A,,Unknown,150,2012-10-20 13:54:00
10:54 AM,66.0,64.0,93,29.70,-9999.0,SSW,11.5,-,N/A,,Unknown,200,2012-10-20 14:54:00
11:54 AM,68.0,61.0,78,29.69,-9999.0,SW,12.7,19.6,N/A,,Unknown,220,2012-10-20 15:54:00
12:54 PM,71.1,60.1,68,29.67,-9999.0,SSW,11.5,-,N/A,,Unknown,200,2012-10-20 16:54:00
1:54 PM,70.0,57.0,63,29.65,-9999.0,SSW,10.4,-,N/A,,Unknown,210,2012-10-20 17:54:00
2:54 PM,72.0,50.0,46,29.65,-9999.0,SSW,15.0,25.3,N/A,,Unknown,200,2012-10-20 18:54:00
3:54 PM,72.0,45.0,38,29.64,-9999.0,SSW,17.3,24.2,N/A,,Unknown,200,2012-10-20 19:54:00
4:54 PM,71.1,45.0,39,29.65,-9999.0,SW,13.8,21.9,N/A,,Unknown,220,2012-10-20 20:54:00
5:54 PM,66.9,45.0,45,29.66,-9999.0,SSW,13.8,-,N/A,,Unknown,210,2012-10-20 21:54:00
6:54 PM,63.0,52.0,67,29.68,-9999.0,South,13.8,20.7,N/A,,Unknown,190,2012-10-20 22:54:00
7:54 PM,61.0,55.0,81,29.70,-9999.0,South,13.8,-,N/A,,Unknown,190,2012-10-20 23:54:00
8:54 PM,59.0,54.0,83,29.72,-9999.0,SSW,12.7,-,N/A,,Unknown,210,2012-10-21 00:54:00
9:54 PM,57.9,52.0,81,29.74,-9999.0,WSW,12.7,-,N/A,,Unknown,250,2012-10-21 01:54:00
10:54 PM,57.0,46.0,67,29.75,-9999.0,WSW,13.8,19.6,N/A,,Unknown,250,2012-10-21 02:54:00
11:54 PM,55.0,42.1,62,29.76,-9999.0,West,15.0,-,N/A,,Unknown,260,2012-10-21 03:54:00